Weather in Herisau

Switzerland     47°23′12″N   9°16′41″E
temp.,
°C
wind,
m/s
gust,
m/s
humid.,
%
clouds,
%
prec.,
mm/h
press.,
hPa
HPBL,
m
28 february, sun
sun2801:000ne23920 0.0 103475
04:00−1ne229428 0.0 103358
07:00−1ne129420 0.0 103430
10:00+3nne227228 0.0 1033397
13:00+7ne235313 0.0 1031542
16:00+9nne12490 0.0 1030506
19:00+2nne11820 0.0 103224
22:000wnw01900 0.0 103322
1 march, mon
mon101:00−1ne01930 0.0 103321
04:00−1ne11940 0.0 103221
07:00−2ne01951 0.0 103321
10:00+3ne21710 0.0 1031308
13:00+7ne22580 0.0 1030387
16:00+9ne11540 0.0 1029273
19:00+3ssw11730 0.0 103222
22:00+1ssw11800 0.0 103222
2 march, tue
tue201:000s11780 0.0 103322
04:000ssw11660 0.0 103322
07:00−1se11550 0.0 103321
10:00+5nne11440 0.0 1032174
13:00+10nne11410 0.0 1031313
16:00+11ne11510 0.0 1030201
19:00+4sse11690 0.0 103222
22:00+3ssw11740 0.0 103322
3 march, wed
wed301:00+2ssw11680 0.0 103322
04:00+1ssw11600 0.0 103222
07:00+1ssw01550 0.0 103222
10:00+7n10460 0.0 1030171
13:00+12nne11450 0.0 1028348
16:00+12ne11549 0.0 1026214
19:00+6ssw117230 0.0 102622
22:00+5ssw22710 0.0 102622
4 march, thu
thu401:00+4ssw12670 0.0 102522
04:00+3ssw126524 0.0 102422
07:00+4ssw116262 0.0 102222
10:00+8nw1160100 0.0 1020174
13:00+12wnw2450100 0.0 1018955
16:00+9nw357798 0.3 1016419
19:00+6ssw5109099 4.1 1017554
22:00+6ssw4989100 0.8 1017543